Time,TemperatureF,DewpointF,PressureIn,WindDirection,WindDirectionDegrees,WindSpeedMPH,WindSpeedGustMPH,Humidity,HourlyPrecipIn,Conditions,Clouds,dailyrainin,SoftwareType,DateUTC
2013-11-09 00:03:00,46.4,43.1,30.45,North,0,0.0,0.0,88,0.00,,,0.00,WUHU216HW,2013-11-09 08:03:00,
2013-11-09 00:08:00,46.3,42.9,30.46,North,0,0.0,0.0,88,0.00,,,0.00,WUHU216HW,2013-11-09 08:08:00,
2013-11-09 00:13:00,46.3,42.9,30.46,North,0,0.0,0.0,88,0.00,,,0.00,WUHU216HW,2013-11-09 08:13:00,
2013-11-09 00:18:00,46.1,42.8,30.46,North,0,0.0,0.0,88,0.00,,,0.00,WUHU216HW,2013-11-09 08:18:00,
2013-11-09 00:23:00,46.1,42.8,30.46,North,0,0.0,0.0,88,0.00,,,0.00,WUHU216HW,2013-11-09 08:23:00,
2013-11-09 00:28:00,45.9,42.6,30.46,North,0,0.0,0.0,88,0.00,,,0.00,WUHU216HW,2013-11-09 08:28:00,
2013-11-09 00:33:00,45.9,42.6,30.46,North,0,0.0,0.0,88,0.00,,,0.00,WUHU216HW,2013-11-09 08:33:00,
2013-11-09 00:38:00,45.9,42.6,30.46,North,0,0.0,0.0,88,0.00,,,0.00,WUHU216HW,2013-11-09 08:38:00,
2013-11-09 00:43:00,45.7,42.4,30.46,North,0,0.0,0.0,88,0.00,,,0.00,WUHU216HW,2013-11-09 08:43:00,
2013-11-09 00:48:00,45.7,42.4,30.46,North,0,0.0,0.0,88,0.00,,,0.00,WUHU216HW,2013-11-09 08:48:00,
2013-11-09 00:53:00,45.7,42.4,30.45,North,0,0.0,0.0,88,0.00,,,0.00,WUHU216HW,2013-11-09 08:53:00,
2013-11-09 00:58:00,45.7,42.4,30.45,SSW,203,0.4,0.7,88,0.00,,,0.00,WUHU216HW,2013-11-09 08:58:00,
2013-11-09 01:03:00,45.7,42.4,30.45,SSW,203,0.2,0.7,88,0.00,,,0.00,WUHU216HW,2013-11-09 09:03:00,
2013-11-09 01:08:00,45.7,42.4,30.45,SSW,203,0.7,0.7,88,0.00,,,0.00,WUHU216HW,2013-11-09 09:08:00,
2013-11-09 01:13:00,45.7,42.4,30.45,SSW,203,0.0,0.7,88,0.00,,,0.00,WUHU216HW,2013-11-09 09:13:00,
2013-11-09 01:18:00,45.7,42.4,30.45,SSW,203,0.4,0.7,88,0.00,,,0.00,WUHU216HW,2013-11-09 09:18:00,
2013-11-09 01:23:00,45.7,42.4,30.45,SSW,203,0.9,0.9,88,0.00,,,0.00,WUHU216HW,2013-11-09 09:23:00,
2013-11-09 01:28:00,45.4,42.0,30.45,SSW,203,0.2,0.9,88,0.00,,,0.00,WUHU216HW,2013-11-09 09:28:00,
2013-11-09 01:33:00,45.4,42.4,30.45,North,0,0.0,0.9,89,0.00,,,0.00,WUHU216HW,2013-11-09 09:33:00,
2013-11-09 01:38:00,45.4,42.4,30.45,North,0,0.0,0.2,89,0.00,,,0.00,WUHU216HW,2013-11-09 09:38:00,
2013-11-09 01:43:00,45.5,42.6,30.44,North,0,0.0,0.0,89,0.00,,,0.00,WUHU216HW,2013-11-09 09:43:00,
2013-11-09 01:47:00,45.4,42.4,30.44,North,0,0.0,0.0,89,0.00,,,0.00,WUHU216HW,2013-11-09 09:47:00,
2013-11-09 01:52:00,45.4,42.0,30.44,North,0,0.0,0.0,88,0.00,,,0.00,WUHU216HW,2013-11-09 09:52:00,
2013-11-09 01:57:00,45.2,41.9,30.44,North,0,0.0,0.0,88,0.00,,,0.00,WUHU216HW,2013-11-09 09:57:00,
2013-11-09 02:02:00,45.2,41.9,30.44,North,0,0.0,0.0,88,0.00,,,0.00,WUHU216HW,2013-11-09 10:02:00,
2013-11-09 02:07:00,45.2,41.9,30.45,North,0,0.0,0.0,88,0.00,,,0.00,WUHU216HW,2013-11-09 10:07:00,
2013-11-09 02:12:00,45.2,41.9,30.45,North,0,0.0,0.0,88,0.00,,,0.00,WUHU216HW,2013-11-09 10:12:00,
2013-11-09 02:17:00,45.2,41.9,30.45,North,0,0.0,0.0,88,0.00,,,0.00,WUHU216HW,2013-11-09 10:17:00,
2013-11-09 02:22:00,45.2,41.9,30.45,North,0,0.0,0.0,88,0.00,,,0.00,WUHU216HW,2013-11-09 10:22:00,
2013-11-09 02:27:00,45.2,41.9,30.45,North,0,0.0,0.0,88,0.00,,,0.00,WUHU216HW,2013-11-09 10:27:00,
2013-11-09 02:32:00,45.2,41.9,30.45,North,0,0.0,0.0,88,0.00,,,0.00,WUHU216HW,2013-11-09 10:32:00,
2013-11-09 02:37:00,45.2,41.9,30.45,North,0,0.0,0.0,88,0.00,,,0.00,WUHU216HW,2013-11-09 10:37:00,
2013-11-09 02:42:00,45.2,41.9,30.45,North,0,0.0,0.0,88,0.00,,,0.00,WUHU216HW,2013-11-09 10:42:00,
2013-11-09 02:47:00,45.0,41.7,30.44,SE,135,0.0,0.0,88,0.00,,,0.00,WUHU216HW,2013-11-09 10:47:00,
2013-11-09 02:52:00,44.8,41.5,30.44,SE,135,0.0,0.0,88,0.00,,,0.00,WUHU216HW,2013-11-09 10:52:00,
2013-11-09 02:57:00,44.8,41.9,30.44,North,0,0.0,0.0,89,0.00,,,0.00,WUHU216HW,2013-11-09 10:57:00,
2013-11-09 03:02:00,44.8,41.9,30.44,North,0,0.0,0.0,89,0.00,,,0.00,WUHU216HW,2013-11-09 11:02:00,
2013-11-09 03:07:00,44.8,41.9,30.44,North,0,0.0,0.0,89,0.00,,,0.00,WUHU216HW,2013-11-09 11:07:00,
2013-11-09 03:12:00,44.8,41.9,30.44,North,0,0.0,0.0,89,0.00,,,0.00,WUHU216HW,2013-11-09 11:12:00,
2013-11-09 03:17:00,44.6,41.3,30.44,North,0,0.0,0.0,88,0.00,,,0.00,WUHU216HW,2013-11-09 11:17:00,
2013-11-09 03:22:00,44.3,41.0,30.43,North,0,0.0,0.0,88,0.00,,,0.00,WUHU216HW,2013-11-09 11:22:00,
2013-11-09 03:27:00,44.3,41.0,30.43,North,0,0.0,0.0,88,0.00,,,0.00,WUHU216HW,2013-11-09 11:27:00,
2013-11-09 03:32:00,43.9,41.0,30.44,North,0,0.0,0.0,89,0.00,,,0.00,WUHU216HW,2013-11-09 11:32:00,
2013-11-09 03:37:00,43.7,40.4,30.43,North,0,0.0,0.0,88,0.00,,,0.00,WUHU216HW,2013-11-09 11:37:00,
2013-11-09 03:42:00,43.6,40.2,30.43,North,0,0.0,0.0,88,0.00,,,0.00,WUHU216HW,2013-11-09 11:42:00,
2013-11-09 03:47:00,43.6,40.6,30.44,North,0,0.0,0.0,89,0.00,,,0.00,WUHU216HW,2013-11-09 11:47:00,
2013-11-09 03:52:00,43.6,40.2,30.43,North,0,0.0,0.0,88,0.00,,,0.00,WUHU216HW,2013-11-09 11:52:00,
2013-11-09 03:57:00,43.6,40.6,30.43,North,0,0.0,0.0,89,0.00,,,0.00,WUHU216HW,2013-11-09 11:57:00,
2013-11-09 04:02:00,43.6,40.6,30.43,North,0,0.0,0.0,89,0.00,,,0.00,WUHU216HW,2013-11-09 12:02:00,
2013-11-09 04:07:00,43.6,40.6,30.43,North,0,0.0,0.0,89,0.00,,,0.00,WUHU216HW,2013-11-09 12:07:00,
2013-11-09 04:12:00,43.6,40.6,30.43,SE,135,0.0,0.0,89,0.00,,,0.00,WUHU216HW,2013-11-09 12:12:00,
2013-11-09 04:17:00,43.4,40.4,30.43,SE,135,0.0,0.4,89,0.00,,,0.00,WUHU216HW,2013-11-09 12:17:00,
2013-11-09 04:22:00,43.4,40.4,30.43,SE,135,0.4,0.4,89,0.00,,,0.00,WUHU216HW,2013-11-09 12:22:00,
2013-11-09 04:27:00,43.2,40.2,30.43,SE,135,0.0,0.4,89,0.00,,,0.00,WUHU216HW,2013-11-09 12:27:00,
2013-11-09 04:32:00,43.2,40.2,30.43,SE,135,0.0,0.4,89,0.00,,,0.00,WUHU216HW,2013-11-09 12:32:00,
2013-11-09 04:37:00,43.2,40.2,30.43,North,0,0.0,0.0,89,0.00,,,0.00,WUHU216HW,2013-11-09 12:37:00,
2013-11-09 04:42:00,42.8,39.9,30.43,North,0,0.0,0.0,89,0.00,,,0.00,WUHU216HW,2013-11-09 12:42:00,
2013-11-09 04:47:00,42.8,39.9,30.43,North,0,0.0,0.0,89,0.00,,,0.00,WUHU216HW,2013-11-09 12:47:00,
2013-11-09 04:52:00,42.7,39.7,30.43,North,0,0.0,0.0,89,0.00,,,0.00,WUHU216HW,2013-11-09 12:52:00,
2013-11-09 04:57:00,42.5,39.5,30.42,North,0,0.0,0.0,89,0.00,,,0.00,WUHU216HW,2013-11-09 12:57:00,
2013-11-09 05:02:00,42.3,39.6,30.42,North,0,0.0,0.0,90,0.00,,,0.00,WUHU216HW,2013-11-09 13:02:00,
2013-11-09 05:07:00,42.1,39.4,30.43,North,0,0.0,0.0,90,0.00,,,0.00,WUHU216HW,2013-11-09 13:07:00,
2013-11-09 05:12:00,42.3,39.6,30.42,North,0,0.0,0.0,90,0.00,,,0.00,WUHU216HW,2013-11-09 13:12:00,
2013-11-09 05:17:00,42.1,39.4,30.42,North,0,0.0,0.0,90,0.00,,,0.00,WUHU216HW,2013-11-09 13:17:00,
2013-11-09 05:22:00,42.1,39.4,30.42,North,0,0.0,0.0,90,0.00,,,0.00,WUHU216HW,2013-11-09 13:22:00,
2013-11-09 05:27:00,42.1,39.4,30.42,North,0,0.0,0.0,90,0.00,,,0.00,WUHU216HW,2013-11-09 13:27:00,
2013-11-09 05:32:00,41.9,39.2,30.42,North,0,0.0,0.0,90,0.00,,,0.00,WUHU216HW,2013-11-09 13:32:00,
2013-11-09 05:37:00,41.9,39.2,30.42,North,0,0.0,0.0,90,0.00,,,0.00,WUHU216HW,2013-11-09 13:37:00,
2013-11-09 05:42:00,41.9,39.2,30.42,North,0,0.0,0.0,90,0.00,,,0.00,WUHU216HW,2013-11-09 13:42:00,
2013-11-09 05:47:00,41.9,39.2,30.42,North,0,0.0,0.0,90,0.00,,,0.00,WUHU216HW,2013-11-09 13:47:00,
2013-11-09 05:52:00,41.9,39.2,30.42,SE,135,0.4,0.4,90,0.00,,,0.00,WUHU216HW,2013-11-09 13:52:00,
2013-11-09 05:57:00,41.9,39.2,30.42,North,0,0.0,0.4,90,0.00,,,0.00,WUHU216HW,2013-11-09 13:57:00,
2013-11-09 06:02:00,41.9,39.2,30.42,North,0,0.0,0.4,90,0.00,,,0.00,WUHU216HW,2013-11-09 14:02:00,
2013-11-09 06:07:00,41.9,39.2,30.42,North,0,0.0,0.0,90,0.00,,,0.00,WUHU216HW,2013-11-09 14:07:00,
2013-11-09 06:12:00,41.9,39.2,30.42,North,0,0.0,0.0,90,0.00,,,0.00,WUHU216HW,2013-11-09 14:12:00,
2013-11-09 06:37:00,40.9,37.9,30.42,North,0,0.0,0.0,89,0.00,,,0.00,WUHU216HW,2013-11-09 14:37:00,
2013-11-09 06:42:00,40.7,37.7,30.41,North,0,0.0,0.0,89,0.00,,,0.00,WUHU216HW,2013-11-09 14:42:00,
2013-11-09 06:47:00,40.7,38.0,30.41,North,0,0.0,0.0,90,0.00,,,0.00,WUHU216HW,2013-11-09 14:47:00,
2013-11-09 06:52:00,40.7,38.0,30.42,North,0,0.0,0.0,90,0.00,,,0.00,WUHU216HW,2013-11-09 14:52:00,
2013-11-09 06:57:00,40.5,37.8,30.42,North,0,0.0,0.0,90,0.00,,,0.00,WUHU216HW,2013-11-09 14:57:00,
2013-11-09 07:02:00,40.0,37.3,30.42,North,0,0.0,0.0,90,0.00,,,0.00,WUHU216HW,2013-11-09 15:02:00,
2013-11-09 07:07:00,39.8,37.1,30.42,North,0,0.0,0.0,90,0.00,,,0.00,WUHU216HW,2013-11-09 15:07:00,
2013-11-09 07:12:00,39.6,36.9,30.42,North,0,0.0,0.0,90,0.00,,,0.00,WUHU216HW,2013-11-09 15:12:00,
2013-11-09 07:17:00,39.8,37.1,30.41,ESE,113,0.0,0.4,90,0.00,,,0.00,WUHU216HW,2013-11-09 15:17:00,
2013-11-09 07:22:00,40.0,37.3,30.42,East,90,0.2,0.4,90,0.00,,,0.00,WUHU216HW,2013-11-09 15:22:00,
2013-11-09 07:27:00,40.0,37.3,30.42,North,0,0.0,0.4,90,0.00,,,0.00,WUHU216HW,2013-11-09 15:27:00,
2013-11-09 07:32:00,40.0,37.3,30.42,North,0,0.0,0.2,90,0.00,,,0.00,WUHU216HW,2013-11-09 15:32:00,
2013-11-09 07:37:00,40.0,37.3,30.42,North,0,0.0,0.0,90,0.00,,,0.00,WUHU216HW,2013-11-09 15:37:00,
2013-11-09 07:42:00,40.1,37.4,30.41,North,0,0.0,0.0,90,0.00,,,0.00,WUHU216HW,2013-11-09 15:42:00,
2013-11-09 07:46:00,40.3,37.6,30.41,North,0,0.0,0.0,90,0.00,,,0.00,WUHU216HW,2013-11-09 15:46:00,
2013-11-09 07:52:00,40.3,37.6,30.42,North,0,0.0,0.0,90,0.00,,,0.00,WUHU216HW,2013-11-09 15:52:00,
2013-11-09 07:57:00,40.3,37.6,30.42,North,0,0.0,0.0,90,0.00,,,0.00,WUHU216HW,2013-11-09 15:57:00,
2013-11-09 08:02:00,40.1,37.4,30.41,North,0,0.0,0.0,90,0.00,,,0.00,WUHU216HW,2013-11-09 16:02:00,
2013-11-09 08:07:00,40.1,37.4,30.41,North,0,0.0,0.0,90,0.00,,,0.00,WUHU216HW,2013-11-09 16:07:00,
2013-11-09 08:12:00,40.3,37.6,30.41,North,0,0.0,0.0,90,0.00,,,0.00,WUHU216HW,2013-11-09 16:12:00,
2013-11-09 08:17:00,40.5,37.8,30.40,North,0,0.0,0.0,90,0.00,,,0.00,WUHU216HW,2013-11-09 16:17:00,
2013-11-09 08:22:00,40.3,37.6,30.40,North,0,0.0,0.0,90,0.00,,,0.00,WUHU216HW,2013-11-09 16:22:00,
2013-11-09 08:27:00,40.5,38.1,30.40,North,0,0.0,0.0,91,0.00,,,0.00,WUHU216HW,2013-11-09 16:27:00,
2013-11-09 08:32:00,40.7,38.3,30.39,North,0,0.0,0.0,91,0.00,,,0.00,WUHU216HW,2013-11-09 16:32:00,
2013-11-09 08:36:00,40.9,38.4,30.40,North,0,0.0,0.0,91,0.00,,,0.00,WUHU216HW,2013-11-09 16:36:00,
2013-11-09 08:41:00,40.9,38.4,30.40,North,0,0.0,0.0,91,0.00,,,0.00,WUHU216HW,2013-11-09 16:41:00,
2013-11-09 08:46:00,41.0,38.6,30.40,North,0,0.0,0.0,91,0.00,,,0.00,WUHU216HW,2013-11-09 16:46:00,
2013-11-09 08:51:00,41.2,38.8,30.40,North,0,0.0,0.0,91,0.00,,,0.00,WUHU216HW,2013-11-09 16:51:00,
2013-11-09 08:56:00,41.4,39.0,30.40,North,0,0.0,0.0,91,0.00,,,0.00,WUHU216HW,2013-11-09 16:56:00,
2013-11-09 09:01:00,41.6,39.2,30.40,North,0,0.0,0.0,91,0.00,,,0.00,WUHU216HW,2013-11-09 17:01:00,
2013-11-09 09:06:00,41.8,39.1,30.40,North,0,0.0,0.0,90,0.00,,,0.00,WUHU216HW,2013-11-09 17:06:00,
2013-11-09 09:11:00,41.8,39.1,30.40,North,0,0.0,0.0,90,0.00,,,0.00,WUHU216HW,2013-11-09 17:11:00,
2013-11-09 09:16:00,41.9,39.5,30.40,North,0,0.0,0.0,91,0.00,,,0.00,WUHU216HW,2013-11-09 17:16:00,
2013-11-09 09:21:00,42.1,39.7,30.40,North,0,0.0,0.0,91,0.00,,,0.00,WUHU216HW,2013-11-09 17:21:00,
2013-11-09 09:26:00,42.5,40.1,30.40,North,0,0.0,0.0,91,0.00,,,0.00,WUHU216HW,2013-11-09 17:26:00,
2013-11-09 09:31:00,43.0,40.6,30.40,North,0,0.0,0.0,91,0.00,,,0.00,WUHU216HW,2013-11-09 17:31:00,
2013-11-09 09:36:00,43.2,40.8,30.41,North,0,0.0,0.0,91,0.00,,,0.00,WUHU216HW,2013-11-09 17:36:00,
2013-11-09 09:41:00,43.7,41.3,30.41,North,0,0.0,0.0,91,0.00,,,0.00,WUHU216HW,2013-11-09 17:41:00,
2013-11-09 09:46:00,44.1,41.7,30.41,North,0,0.0,0.0,91,0.00,,,0.00,WUHU216HW,2013-11-09 17:46:00,
2013-11-09 09:51:00,44.5,41.8,30.40,North,0,0.0,0.0,90,0.00,,,0.00,WUHU216HW,2013-11-09 17:51:00,
2013-11-09 09:56:00,45.0,42.6,30.40,North,0,0.0,0.0,91,0.00,,,0.00,WUHU216HW,2013-11-09 17:56:00,
2013-11-09 10:01:00,46.1,43.7,30.40,SE,135,2.7,2.7,91,0.00,,,0.00,WUHU216HW,2013-11-09 18:01:00,
2013-11-09 10:06:00,46.8,44.1,30.40,East,90,0.0,2.7,90,0.00,,,0.00,WUHU216HW,2013-11-09 18:06:00,
2013-11-09 10:11:00,47.2,44.2,30.40,North,0,1.6,2.7,89,0.00,,,0.00,WUHU216HW,2013-11-09 18:11:00,
2013-11-09 10:16:00,47.9,43.9,30.40,NNW,338,1.8,1.8,86,0.00,,,0.00,WUHU216HW,2013-11-09 18:16:00,
2013-11-09 10:21:00,48.2,44.6,30.40,North,0,0.0,1.8,87,0.00,,,0.00,WUHU216HW,2013-11-09 18:21:00,
2013-11-09 10:26:00,48.4,44.7,30.40,North,0,0.9,2.7,87,0.00,,,0.00,WUHU216HW,2013-11-09 18:26:00,
2013-11-09 10:31:00,48.4,44.7,30.40,North,0,0.9,2.7,87,0.00,,,0.00,WUHU216HW,2013-11-09 18:31:00,
2013-11-09 10:56:00,47.9,44.2,30.41,East,90,1.3,1.3,87,0.00,,,0.00,WUHU216HW,2013-11-09 18:56:00,
2013-11-09 11:01:00,48.1,43.7,30.41,ESE,113,0.7,1.3,85,0.00,,,0.00,WUHU216HW,2013-11-09 19:01:00,
2013-11-09 11:06:00,48.2,44.3,30.41,East,90,0.4,1.3,86,0.00,,,0.00,WUHU216HW,2013-11-09 19:06:00,
2013-11-09 11:11:00,48.4,44.4,30.40,East,90,0.2,0.7,86,0.00,,,0.00,WUHU216HW,2013-11-09 19:11:00,
2013-11-09 11:16:00,48.6,44.6,30.41,NNE,23,0.0,1.1,86,0.00,,,0.00,WUHU216HW,2013-11-09 19:16:00,
2013-11-09 11:21:00,48.6,44.3,30.40,North,0,0.0,1.1,85,0.00,,,0.00,WUHU216HW,2013-11-09 19:21:00,
2013-11-09 11:26:00,49.0,44.7,30.40,North,0,0.0,0.9,85,0.00,,,0.00,WUHU216HW,2013-11-09 19:26:00,
2013-11-09 11:31:00,49.0,44.7,30.40,North,0,0.2,0.4,85,0.00,,,0.00,WUHU216HW,2013-11-09 19:31:00,
2013-11-09 11:36:00,49.1,44.8,30.40,North,0,0.7,0.7,85,0.00,,,0.00,WUHU216HW,2013-11-09 19:36:00,
2013-11-09 11:41:00,49.3,44.9,30.40,North,0,0.7,0.7,85,0.00,,,0.00,WUHU216HW,2013-11-09 19:41:00,
2013-11-09 11:46:00,49.3,44.9,30.40,North,0,0.0,0.7,85,0.00,,,0.00,WUHU216HW,2013-11-09 19:46:00,
2013-11-09 11:51:00,49.7,45.6,30.40,North,0,0.0,0.7,86,0.00,,,0.00,WUHU216HW,2013-11-09 19:51:00,
2013-11-09 11:56:00,50.0,45.9,30.39,North,0,0.0,0.0,86,0.00,,,0.00,WUHU216HW,2013-11-09 19:56:00,
2013-11-09 12:01:00,50.0,45.6,30.40,North,0,0.0,0.0,85,0.00,,,0.00,WUHU216HW,2013-11-09 20:01:00,
2013-11-09 12:06:00,50.4,45.7,30.39,North,0,0.0,0.0,84,0.00,,,0.00,WUHU216HW,2013-11-09 20:06:00,
2013-11-09 12:11:00,50.2,45.6,30.39,North,0,0.0,0.0,84,0.00,,,0.00,WUHU216HW,2013-11-09 20:11:00,
2013-11-09 12:16:00,50.2,45.6,30.39,North,0,0.0,0.0,84,0.00,,,0.00,WUHU216HW,2013-11-09 20:16:00,
2013-11-09 12:21:00,50.2,45.6,30.39,North,0,0.0,0.0,84,0.00,,,0.00,WUHU216HW,2013-11-09 20:21:00,
2013-11-09 12:42:00,50.4,45.7,30.38,North,0,0.0,0.0,84,0.00,,,0.00,WUHU216HW,2013-11-09 20:42:00,
2013-11-09 12:47:00,50.4,45.7,30.38,North,0,0.0,0.0,84,0.00,,,0.00,WUHU216HW,2013-11-09 20:47:00,
2013-11-09 12:52:00,50.4,45.7,30.37,North,0,0.0,0.0,84,0.00,,,0.00,WUHU216HW,2013-11-09 20:52:00,
2013-11-09 12:58:00,50.6,45.9,30.38,North,0,0.0,0.0,84,0.00,,,0.00,WUHU216HW,2013-11-09 20:58:00,
2013-11-09 13:03:00,50.8,45.7,30.37,North,0,0.0,0.0,83,0.00,,,0.00,WUHU216HW,2013-11-09 21:03:00,
2013-11-09 13:08:00,50.8,45.7,30.38,SE,135,0.0,0.0,83,0.00,,,0.00,WUHU216HW,2013-11-09 21:08:00,
2013-11-09 13:13:00,50.9,45.9,30.38,NW,315,0.9,0.9,83,0.00,,,0.00,WUHU216HW,2013-11-09 21:13:00,
2013-11-09 13:18:00,50.9,45.9,30.38,NNW,338,0.0,0.9,83,0.00,,,0.00,WUHU216HW,2013-11-09 21:18:00,
2013-11-09 13:23:00,50.9,45.9,30.38,NNW,338,0.0,0.0,83,0.00,,,0.00,WUHU216HW,2013-11-09 21:23:00,
2013-11-09 13:43:00,51.1,46.1,30.37,ENE,68,0.0,0.0,83,0.00,,,0.00,WUHU216HW,2013-11-09 21:43:00,
2013-11-09 13:49:00,51.1,46.1,30.37,ENE,68,0.0,0.0,83,0.00,,,0.00,WUHU216HW,2013-11-09 21:49:00,
2013-11-09 13:54:00,51.1,46.1,30.38,ENE,68,0.0,0.0,83,0.00,,,0.00,WUHU216HW,2013-11-09 21:54:00,
2013-11-09 13:59:00,51.1,46.5,30.37,North,0,0.0,0.0,84,0.00,,,0.00,WUHU216HW,2013-11-09 21:59:00,
2013-11-09 14:04:00,51.1,46.5,30.37,North,0,0.0,0.0,84,0.00,,,0.00,WUHU216HW,2013-11-09 22:04:00,
2013-11-09 14:09:00,51.1,46.5,30.37,North,0,0.0,0.0,84,0.00,,,0.00,WUHU216HW,2013-11-09 22:09:00,
2013-11-09 14:13:00,51.3,46.3,30.37,North,0,0.0,0.0,83,0.00,,,0.00,WUHU216HW,2013-11-09 22:13:00,
2013-11-09 14:19:00,51.3,46.3,30.37,North,0,0.0,0.0,83,0.00,,,0.00,WUHU216HW,2013-11-09 22:19:00,
2013-11-09 14:24:00,51.3,46.0,30.37,North,0,0.0,0.0,82,0.00,,,0.00,WUHU216HW,2013-11-09 22:24:00,
2013-11-09 14:29:00,51.1,45.8,30.37,North,0,0.0,0.0,82,0.00,,,0.00,WUHU216HW,2013-11-09 22:29:00,
2013-11-09 14:34:00,51.1,46.1,30.38,North,0,0.0,0.0,83,0.00,,,0.00,WUHU216HW,2013-11-09 22:34:00,
2013-11-09 14:39:00,51.1,46.1,30.38,North,0,0.0,0.0,83,0.00,,,0.00,WUHU216HW,2013-11-09 22:39:00,
2013-11-09 14:44:00,51.1,46.1,30.38,North,0,0.0,0.0,83,0.00,,,0.00,WUHU216HW,2013-11-09 22:44:00,
2013-11-09 14:49:00,51.1,46.1,30.38,North,0,0.0,0.0,83,0.00,,,0.00,WUHU216HW,2013-11-09 22:49:00,
2013-11-09 14:54:00,50.9,45.9,30.38,North,0,0.0,0.0,83,0.00,,,0.00,WUHU216HW,2013-11-09 22:54:00,
2013-11-09 14:59:00,50.9,46.3,30.38,North,0,0.0,0.0,84,0.00,,,0.00,WUHU216HW,2013-11-09 22:59:00,
2013-11-09 15:04:00,50.9,46.3,30.39,North,0,0.0,0.0,84,0.00,,,0.00,WUHU216HW,2013-11-09 23:04:00,
2013-11-09 15:09:00,50.8,46.1,30.39,North,0,0.0,0.0,84,0.00,,,0.00,WUHU216HW,2013-11-09 23:09:00,
2013-11-09 15:14:00,50.8,46.1,30.38,North,0,0.0,0.0,84,0.00,,,0.00,WUHU216HW,2013-11-09 23:14:00,
2013-11-09 15:19:00,50.8,46.1,30.38,North,0,0.0,0.0,84,0.00,,,0.00,WUHU216HW,2013-11-09 23:19:00,
2013-11-09 15:24:00,50.6,45.9,30.39,North,0,0.0,0.0,84,0.00,,,0.00,WUHU216HW,2013-11-09 23:24:00,
2013-11-09 15:29:00,50.6,45.9,30.39,North,0,0.0,0.0,84,0.00,,,0.00,WUHU216HW,2013-11-09 23:29:00,
2013-11-09 15:34:00,50.6,45.9,30.39,North,0,0.0,0.0,84,0.00,,,0.00,WUHU216HW,2013-11-09 23:34:00,
2013-11-09 15:39:00,50.4,46.0,30.39,North,0,0.0,0.0,85,0.00,,,0.00,WUHU216HW,2013-11-09 23:39:00,
2013-11-09 15:44:00,50.2,45.8,30.39,North,0,0.0,0.0,85,0.00,,,0.00,WUHU216HW,2013-11-09 23:44:00,
2013-11-09 15:49:00,50.2,45.8,30.39,North,0,0.0,0.0,85,0.00,,,0.00,WUHU216HW,2013-11-09 23:49:00,
2013-11-09 15:54:00,50.0,45.6,30.39,North,0,0.0,0.0,85,0.00,,,0.00,WUHU216HW,2013-11-09 23:54:00,
2013-11-09 15:59:00,49.9,45.8,30.39,North,0,0.0,0.0,86,0.00,,,0.00,WUHU216HW,2013-11-09 23:59:00,
2013-11-09 16:04:00,49.7,45.6,30.40,North,0,0.0,0.0,86,0.00,,,0.00,WUHU216HW,2013-11-10 00:04:00,
2013-11-09 16:09:00,49.5,45.1,30.40,North,0,0.0,0.0,85,0.00,,,0.00,WUHU216HW,2013-11-10 00:09:00,
2013-11-09 16:14:00,49.3,45.3,30.40,North,0,0.0,0.0,86,0.00,,,0.00,WUHU216HW,2013-11-10 00:14:00,
2013-11-09 16:19:00,49.1,45.1,30.40,North,0,0.0,0.0,86,0.00,,,0.00,WUHU216HW,2013-11-10 00:19:00,
2013-11-09 16:24:00,49.0,45.3,30.40,North,0,0.0,0.0,87,0.00,,,0.00,WUHU216HW,2013-11-10 00:24:00,
2013-11-09 16:29:00,49.0,45.3,30.40,North,0,0.0,0.0,87,0.00,,,0.00,WUHU216HW,2013-11-10 00:29:00,
2013-11-09 16:34:00,48.8,45.1,30.40,ESE,113,0.7,0.7,87,0.00,,,0.00,WUHU216HW,2013-11-10 00:34:00,
2013-11-09 16:39:00,48.6,45.2,30.40,ESE,113,0.4,0.7,88,0.00,,,0.00,WUHU216HW,2013-11-10 00:39:00,
2013-11-09 16:44:00,48.6,45.2,30.40,ESE,113,0.0,0.4,88,0.00,,,0.00,WUHU216HW,2013-11-10 00:44:00,
2013-11-09 16:49:00,48.4,45.1,30.40,ESE,113,0.4,0.7,88,0.00,,,0.00,WUHU216HW,2013-11-10 00:49:00,
2013-11-09 16:54:00,48.2,44.9,30.40,ESE,113,0.0,0.7,88,0.00,,,0.00,WUHU216HW,2013-11-10 00:54:00,
2013-11-09 16:59:00,48.2,44.9,30.40,ESE,113,0.0,0.0,88,0.00,,,0.00,WUHU216HW,2013-11-10 00:59:00,
2013-11-09 17:04:00,48.2,44.9,30.41,North,0,0.0,0.0,88,0.00,,,0.00,WUHU216HW,2013-11-10 01:04:00,
2013-11-09 17:09:00,48.4,45.4,30.41,North,0,0.0,0.0,89,0.00,,,0.00,WUHU216HW,2013-11-10 01:09:00,
2013-11-09 17:14:00,48.4,45.1,30.41,ESE,113,0.0,0.0,88,0.00,,,0.00,WUHU216HW,2013-11-10 01:14:00,
2013-11-09 17:19:00,48.2,44.9,30.41,ESE,113,0.0,0.4,88,0.00,,,0.00,WUHU216HW,2013-11-10 01:19:00,
2013-11-09 17:24:00,48.2,45.2,30.41,ESE,113,0.0,0.4,89,0.00,,,0.00,WUHU216HW,2013-11-10 01:24:00,
2013-11-09 17:29:00,48.2,45.2,30.41,ESE,113,0.0,0.2,89,0.00,,,0.00,WUHU216HW,2013-11-10 01:29:00,
2013-11-09 17:34:00,48.2,45.2,30.41,ESE,113,0.0,0.2,89,0.00,,,0.00,WUHU216HW,2013-11-10 01:34:00,
2013-11-09 17:39:00,48.2,45.2,30.41,ESE,113,0.0,0.0,89,0.00,,,0.00,WUHU216HW,2013-11-10 01:39:00,
2013-11-09 17:44:00,48.1,45.0,30.41,ESE,113,0.0,0.4,89,0.00,,,0.00,WUHU216HW,2013-11-10 01:44:00,
2013-11-09 17:49:00,48.1,45.0,30.41,ESE,113,0.0,0.4,89,0.00,,,0.00,WUHU216HW,2013-11-10 01:49:00,
2013-11-09 17:54:00,47.9,45.2,30.41,ESE,113,0.0,0.4,90,0.00,,,0.00,WUHU216HW,2013-11-10 01:54:00,
2013-11-09 17:59:00,47.9,45.2,30.41,ESE,113,0.0,0.4,90,0.00,,,0.00,WUHU216HW,2013-11-10 01:59:00,
2013-11-09 18:04:00,47.7,45.0,30.41,ESE,113,0.7,0.7,90,0.00,,,0.00,WUHU216HW,2013-11-10 02:04:00,
2013-11-09 18:09:00,47.7,45.0,30.41,ESE,113,0.4,0.9,90,0.00,,,0.00,WUHU216HW,2013-11-10 02:09:00,
2013-11-09 18:14:00,47.7,45.0,30.42,ESE,113,0.2,0.9,90,0.00,,,0.00,WUHU216HW,2013-11-10 02:14:00,
2013-11-09 18:19:00,47.5,44.8,30.41,ESE,113,0.0,1.1,90,0.00,,,0.00,WUHU216HW,2013-11-10 02:19:00,
2013-11-09 18:24:00,47.5,44.8,30.41,ESE,113,0.4,1.1,90,0.00,,,0.00,WUHU216HW,2013-11-10 02:24:00,
2013-11-09 18:29:00,47.5,45.1,30.41,ESE,113,0.4,0.4,91,0.00,,,0.00,WUHU216HW,2013-11-10 02:29:00,
2013-11-09 18:34:00,47.3,44.9,30.42,ESE,113,0.0,0.9,91,0.00,,,0.00,WUHU216HW,2013-11-10 02:34:00,
2013-11-09 18:39:00,47.3,44.9,30.41,ESE,113,0.0,0.9,91,0.00,,,0.00,WUHU216HW,2013-11-10 02:39:00,
2013-11-09 18:44:00,47.5,45.1,30.41,ESE,113,0.0,0.4,91,0.00,,,0.00,WUHU216HW,2013-11-10 02:44:00,
2013-11-09 18:49:00,47.5,45.1,30.41,ESE,113,0.0,0.4,91,0.00,,,0.00,WUHU216HW,2013-11-10 02:49:00,
2013-11-09 18:54:00,47.5,45.1,30.41,ESE,113,0.7,0.7,91,0.00,,,0.00,WUHU216HW,2013-11-10 02:54:00,
2013-11-09 18:59:00,47.3,44.9,30.41,ESE,113,0.7,0.7,91,0.00,,,0.00,WUHU216HW,2013-11-10 02:59:00,
2013-11-09 19:04:00,47.3,44.9,30.40,East,90,0.0,1.8,91,0.00,,,0.00,WUHU216HW,2013-11-10 03:04:00,
2013-11-09 19:09:00,47.2,44.7,30.41,SE,135,0.0,1.8,91,0.00,,,0.00,WUHU216HW,2013-11-10 03:09:00,
2013-11-09 19:14:00,47.2,44.7,30.41,ESE,113,0.7,2.0,91,0.00,,,0.00,WUHU216HW,2013-11-10 03:14:00,
2013-11-09 19:19:00,47.0,44.6,30.40,SE,135,0.4,2.0,91,0.00,,,0.00,WUHU216HW,2013-11-10 03:19:00,
2013-11-09 19:24:00,46.8,44.4,30.40,SE,135,0.0,1.1,91,0.00,,,0.00,WUHU216HW,2013-11-10 03:24:00,
2013-11-09 19:29:00,47.0,44.6,30.41,SE,135,0.0,1.1,91,0.00,,,0.00,WUHU216HW,2013-11-10 03:29:00,
2013-11-09 19:34:00,47.0,44.6,30.41,ENE,68,0.4,2.2,91,0.00,,,0.00,WUHU216HW,2013-11-10 03:34:00,
2013-11-09 19:39:00,46.8,44.4,30.41,ENE,68,0.2,2.2,91,0.00,,,0.00,WUHU216HW,2013-11-10 03:39:00,
2013-11-09 19:44:00,46.8,44.4,30.41,SE,135,0.9,1.1,91,0.00,,,0.00,WUHU216HW,2013-11-10 03:44:00,
2013-11-09 19:49:00,46.8,44.6,30.41,SE,135,1.1,1.1,92,0.00,,,0.00,WUHU216HW,2013-11-10 03:49:00,
2013-11-09 19:54:00,46.8,44.4,30.41,SE,135,0.4,1.1,91,0.00,,,0.00,WUHU216HW,2013-11-10 03:54:00,
2013-11-09 19:59:00,46.8,44.4,30.41,SE,135,0.0,0.9,91,0.00,,,0.00,WUHU216HW,2013-11-10 03:59:00,
2013-11-09 20:04:00,46.6,44.5,30.41,SE,135,0.4,1.8,92,0.00,,,0.00,WUHU216HW,2013-11-10 04:04:00,
2013-11-09 20:09:00,46.6,44.5,30.40,SE,135,0.4,1.8,92,0.00,,,0.00,WUHU216HW,2013-11-10 04:09:00,
2013-11-09 20:14:00,46.6,44.2,30.40,SE,135,0.0,0.7,91,0.00,,,0.00,WUHU216HW,2013-11-10 04:14:00,
2013-11-09 20:19:00,46.6,44.2,30.40,SE,135,0.0,0.4,91,0.00,,,0.00,WUHU216HW,2013-11-10 04:19:00,
2013-11-09 20:24:00,46.8,44.6,30.40,SE,135,0.0,0.4,92,0.00,,,0.00,WUHU216HW,2013-11-10 04:24:00,
2013-11-09 20:29:00,46.6,44.5,30.40,SE,135,0.7,0.7,92,0.00,,,0.00,WUHU216HW,2013-11-10 04:29:00,
2013-11-09 20:34:00,46.6,44.5,30.40,SE,135,0.0,0.7,92,0.00,,,0.00,WUHU216HW,2013-11-10 04:34:00,
2013-11-09 20:39:00,46.6,44.5,30.40,SE,135,0.7,0.7,92,0.00,,,0.00,WUHU216HW,2013-11-10 04:39:00,
2013-11-09 20:44:00,46.6,44.5,30.41,SE,135,0.7,1.6,92,0.00,,,0.00,WUHU216HW,2013-11-10 04:44:00,
2013-11-09 20:49:00,46.4,44.3,30.41,ESE,113,1.1,1.6,92,0.00,,,0.00,WUHU216HW,2013-11-10 04:49:00,
2013-11-09 20:54:00,46.4,44.3,30.41,ESE,113,0.0,1.1,92,0.00,,,0.00,WUHU216HW,2013-11-10 04:54:00,